[[{"header":{"parameterUnit":"m.s-1","parameterCategory":1,"la1":30.2992,"la2":30.254,"lo1":-89.0895,"lo2":-89.0443,"dy":0.0025,"dx":0.0025,"nx":19,"ny":19,"refTime":"2026-03-18T21:00:00:Z","depth":0,"parameterNumber":2,"parameterNumberName":"U-component_of_WINDS"},"data":[0,0,0,1.5131,1.5132,1.5198,1.5198,1.5269,1.527,0,0,0,0,0,0,0,0,0,0,0,1.5107,1.5107,1.5131,1.5133,1.5198,1.5198,1.5269,1.527,0,0,0,0,0,0,0,0,0,0,0,1.5107,1.5107,1.5107,1.5133,1.5198,1.5198,1.5269,1.5224,0,0,0,0,0,0,0,0,0,0,1.5162,1.5135,1.5107,1.5107,1.5133,1.5198,1.5198,1.5222,1.5226,1.5235,0,1.5244,0,1.5258,1.5274,1.5274,0,0,0,1.5136,1.5131,1.5154,1.5108,1.5134,1.5198,1.5169,1.5224,1.523,1.5241,1.5245,1.5248,1.5259,1.5274,1.5275,1.5318,1.5318,0,0,1.5132,1.5115,1.515,1.5157,1.5149,1.5167,1.5171,1.5228,1.523,1.5245,1.525,1.526,1.5275,1.5275,1.5318,1.5318,0,0,0,1.512,1.5113,1.5134,1.5154,1.5167,1.5169,1.5174,1.5227,1.5236,1.525,1.5261,1.5275,1.5276,1.5318,1.5318,1.5305,0,0,0,1.5118,1.5105,1.5132,1.5122,1.5165,1.5198,1.5172,1.5232,1.5239,1.5261,1.5275,1.5277,1.5318,1.5318,1.5305,1.5301,0,0,0,1.5104,1.5104,1.5112,1.5121,1.5149,1.5198,1.521,1.5234,1.5245,1.5274,1.5277,1.5318,1.5318,1.5306,1.5302,1.5308,0,0,0,1.5084,1.5099,1.5111,1.5131,1.5149,1.519,1.5209,1.524,1.5264,1.5276,1.5318,1.5318,1.5306,1.5302,1.5308,1.5309,1.5309,0,0,1.5093,1.51,1.5113,1.5126,1.516,1.5181,1.5213,1.525,1.5267,1.5299,1.5301,1.5305,1.5302,1.5308,1.5311,1.531,0,0,0,1.511,1.5119,1.5132,1.5154,1.5183,1.5207,1.5241,1.5254,1.5283,1.5281,1.531,1.5308,1.5312,1.5313,1.5313,1.5317,1.5318,1.5318,1.5318,1.5098,1.512,1.5143,1.5172,1.5193,1.5227,1.5245,1.5269,1.5284,1.529,1.53,1.53,1.5301,1.53,1.5304,1.5303,1.5303,1.5303,1.5303,1.5113,1.5129,1.5149,1.5178,1.5199,1.5223,1.5255,1.5265,1.5289,1.5294,1.5299,1.5303,1.5299,1.5303,1.5302,1.5302,1.5302,1.5302,1.5302,1.5108,1.5119,1.5136,1.5169,1.5192,1.522,1.5242,1.5261,1.5278,1.5283,1.5294,1.5295,1.5297,1.5287,1.5287,1.5287,1.5287,1.5287,1.5287,1.5096,1.5115,1.5132,1.5163,1.5179,1.5202,1.5235,1.525,1.5272,1.5284,1.5284,1.5297,1.5295,1.5294,1.5287,1.5287,1.5287,1.5287,1.5287,1.5102,1.5103,1.513,1.5146,1.5183,1.5203,1.5227,1.5256,1.5271,1.5281,1.5293,1.5288,1.5296,1.5296,1.5295,1.5289,1.5289,1.5289,1.5289,1.5097,1.5103,1.5134,1.5157,1.5183,1.5207,1.5233,1.5257,1.5282,1.5293,1.5296,1.5296,1.5296,1.5303,1.5304,1.5303,1.5299,1.5299,1.5299,1.5102,1.511,1.5131,1.5157,1.5186,1.5211,1.5235,1.526,1.5289,1.53,1.5301,1.53,1.5301,1.53,1.5312,1.5312,1.5312,0,0]},{"header":{"parameterUnit":"m.s-1","parameterCategory":1,"la1":30.2992,"la2":30.254,"lo1":-89.0895,"lo2":-89.0443,"dy":0.0025,"dx":0.0025,"nx":19,"ny":19,"refTime":"2026-03-18T21:00:00:Z","depth":0,"parameterNumber":3,"parameterNumberName":"V-component_of_WINDS"},"data":[0,0,0,1.4739,1.4739,1.4701,1.4701,1.466,1.466,0,0,0,0,0,0,0,0,0,0,0,1.4756,1.4756,1.4739,1.4739,1.4701,1.4701,1.466,1.466,0,0,0,0,0,0,0,0,0,0,0,1.4756,1.4756,1.4756,1.4738,1.4701,1.4701,1.466,1.4686,0,0,0,0,0,0,0,0,0,0,1.4721,1.4743,1.4756,1.4756,1.4738,1.4701,1.4701,1.4687,1.4684,1.4681,0,1.4681,0,1.467,1.4658,1.4657,0,0,0,1.4734,1.4745,1.473,1.4756,1.4738,1.4701,1.4717,1.4685,1.4682,1.4677,1.468,1.4678,1.4669,1.4657,1.4657,1.4656,1.4657,0,0,1.4736,1.4753,1.4732,1.4728,1.4736,1.4718,1.4715,1.4683,1.4687,1.468,1.4677,1.4668,1.4657,1.4657,1.4656,1.4656,0,0,0,1.4745,1.4754,1.4739,1.473,1.4723,1.4717,1.4714,1.4688,1.4682,1.4677,1.4668,1.4657,1.4657,1.4656,1.4656,1.4683,0,0,0,1.4746,1.476,1.4741,1.4751,1.4723,1.4705,1.472,1.4684,1.468,1.4668,1.4657,1.4656,1.4656,1.4656,1.4682,1.4693,0,0,0,1.4757,1.4761,1.4758,1.4751,1.4736,1.4705,1.4697,1.4683,1.4675,1.4657,1.4656,1.4655,1.4656,1.4681,1.4691,1.4697,0,0,0,1.4773,1.4783,1.4758,1.4766,1.4737,1.4723,1.4697,1.4686,1.4675,1.4657,1.4656,1.4656,1.468,1.469,1.4696,1.4704,1.471,0,0,1.4795,1.4786,1.4789,1.4766,1.4761,1.4727,1.4726,1.4699,1.4681,1.4665,1.4665,1.4682,1.4691,1.4697,1.4735,1.474,0,0,0,1.4801,1.4803,1.4798,1.4788,1.4768,1.4751,1.4723,1.4712,1.4698,1.4677,1.4686,1.469,1.4693,1.4696,1.47,1.47,1.4659,1.4659,1.4659,1.4856,1.4833,1.4836,1.4808,1.4798,1.4768,1.4757,1.4738,1.4718,1.472,1.4715,1.4742,1.4746,1.4749,1.475,1.4718,1.4718,1.4718,1.4719,1.4885,1.4884,1.4856,1.4849,1.4823,1.4816,1.4787,1.4772,1.4761,1.4744,1.4745,1.4728,1.4755,1.4754,1.472,1.472,1.472,1.472,1.472,1.4918,1.4913,1.49,1.4882,1.487,1.4841,1.4831,1.4809,1.4787,1.4789,1.478,1.4779,1.4775,1.4786,1.4786,1.4786,1.4786,1.4786,1.4786,1.4956,1.4941,1.4936,1.4915,1.4904,1.4888,1.4856,1.4845,1.4826,1.481,1.481,1.4788,1.4762,1.4755,1.4788,1.4787,1.4787,1.4787,1.4787,1.4993,1.4981,1.4973,1.4963,1.4934,1.4923,1.4894,1.4873,1.486,1.4855,1.4833,1.4817,1.4806,1.4803,1.4797,1.4839,1.4839,1.4839,1.4839,1.502,1.5012,1.4999,1.4983,1.4965,1.4938,1.4928,1.4902,1.4874,1.4864,1.4855,1.4845,1.4843,1.4833,1.483,1.4824,1.4871,1.4871,1.4871,1.504,1.503,1.5027,1.5,1.4975,1.4954,1.4943,1.4925,1.489,1.4872,1.4855,1.4854,1.4838,1.4835,1.4816,1.4811,1.48,0,0]}]]